Wind_Speed
27 25 24 24 24 23 21 20 19 19 19 18 17 15 12 11 13 14 14 13 13 13 12 11 9 7 6 5 3 2 1 1 3 5 8 10 12 13 12 11 12 13
28 26 25 25 25 24 23 21 20 19 19 19 18 16 14 14 15 15 15 14 14 14 14 12 10 9 7 6 4 3 2 2 3 5 7 9 11 13 14 14 14 15
31 29 27 27 26 25 23 22 21 20 19 19 19 17 16 16 17 17 16 15 15 15 15 14 12 10 9 8 7 5 4 2 3 4 6 8 11 13 14 14 15 15
33 31 28 27 27 26 24 23 23 21 20 20 19 18 18 18 19 19 17 16 16 16 16 15 13 12 11 11 10 8 6 4 4 5 6 8 10 12 13 13 13 14
34 32 30 29 28 27 26 25 24 22 21 21 20 18 19 20 21 20 19 18 18 17 17 15 14 13 13 13 12 11 9 8 8 7 8 8 9 11 12 13 12 12
34 33 31 30 30 29 27 25 24 23 22 21 21 20 20 21 22 22 21 20 19 18 17 16 15 15 15 14 13 13 13 13 12 11 10 10 10 11 12 13 13 12
33 32 31 31 31 30 28 26 25 24 23 22 22 22 22 23 23 23 23 21 20 19 18 18 17 17 16 16 15 14 15 16 15 14 13 12 11 11 13 14 14 14
31 31 30 30 31 31 29 27 26 25 24 24 24 23 23 24 24 25 24 23 22 20 19 18 18 18 18 17 16 15 15 16 17 17 16 15 14 13 14 16 15 15
30 30 30 30 31 31 29 27 27 26 26 25 24 23 23 24 26 26 26 25 23 22 20 19 19 19 18 17 16 15 14 15 17 18 18 18 17 17 17 17 16 16
28 28 29 29 29 30 29 27 27 27 27 26 25 24 25 25 26 27 27 26 24 23 21 20 19 19 18 17 16 15 15 15 17 18 18 19 20 19 19 18 17 16
28 27 27 27 27 28 28 27 27 29 29 27 26 26 26 26 28 28 28 27 25 23 21 20 19 19 18 18 18 18 18 18 19 20 19 20 20 20 20 20 19 18
29 27 26 25 25 27 27 27 28 29 29 28 27 27 27 28 29 29 28 27 24 23 22 20 19 19 19 19 19 20 20 21 21 21 21 21 20 21 21 21 21 20
30 28 26 25 25 26 27 28 28 29 29 28 28 28 28 29 30 29 28 26 25 24 22 21 21 20 20 20 21 21 21 21 22 22 22 22 21 22 23 24 23 21
32 30 27 25 25 26 27 28 28 29 29 28 28 29 30 30 30 29 28 27 26 25 23 23 23 22 22 22 22 23 22 23 23 22 22 22 23 23 24 25 24 22
34 32 29 27 26 26 27 27 28 29 29 29 29 30 31 31 31 30 30 29 28 26 25 25 25 24 23 23 24 25 25 25 25 24 23 23 24 25 26 27 25 23
35 34 32 30 28 26 26 27 28 29 30 29 29 30 32 33 32 32 32 31 29 28 27 27 26 25 25 25 27 27 27 28 27 26 25 25 26 28 30 29 28 26
35 35 34 32 30 28 27 28 29 29 30 30 30 32 33 34 34 34 33 31 30 29 29 29 28 26 26 27 28 29 30 31 29 28 28 28 28 30 30 29 29 28
36 36 36 34 33 31 29 29 29 30 30 31 33 33 34 36 36 35 34 32 31 31 31 30 28 26 26 27 29 30 31 32 30 29 30 30 29 29 29 28 29 29
36 37 37 36 35 34 32 31 31 31 31 33 34 35 36 37 37 36 36 34 34 33 31 29 28 27 27 28 29 31 31 32 31 28 27 25 24 25 26 26 27 28
36 37 37 37 37 36 36 34 33 32 33 34 36 37 38 39 39 39 39 37 35 33 31 30 29 28 29 29 30 31 32 34 33 26 21 20 20 21 23 23 25 26
33 35 36 37 38 38 38 37 35 34 35 36 38 38 39 39 40 41 41 38 36 34 32 32 31 30 30 30 31 32 32 35 35 25 18 19 22 23 23 22 22 22
33 33 33 35 38 38 38 38 38 37 36 37 40 41 39 39 41 43 43 41 38 36 35 34 32 32 32 31 32 34 33 35 34 27 21 21 23 24 23 19 17 17
33 33 33 33 36 38 38 39 39 39 38 38 40 41 40 40 42 44 44 42 39 37 37 35 33 33 32 31 32 34 35 34 31 28 26 24 23 23 23 18 17 18
30 33 35 34 34 35 37 39 40 40 40 40 40 40 40 39 41 43 42 40 38 37 36 34 33 33 32 32 33 36 38 35 28 25 27 26 24 24 24 22 21 21
24 27 31 33 35 37 37 38 39 41 41 41 41 40 39 39 40 41 40 38 35 34 33 33 34 34 32 32 32 36 39 35 27 24 26 26 25 25 25 23 22 20
21 20 20 23 29 34 37 37 39 40 41 41 41 40 39 39 40 40 39 37 34 32 31 33 35 33 32 31 31 32 36 34 28 26 27 26 24 25 24 21 19 16
Wind_Direction
238 241 244 245 248 250 249 243 234 228 228 228 229 229 225 222 224 221 212 199 191 193 196 194 193 191 181 172 170 180 223 347 357 352 350 351 354 358 1 357 351 351
239 240 242 244 246 248 249 245 234 225 224 224 226 225 219 215 214 211 204 194 189 194 198 198 196 194 190 189 195 221 254 307 334 342 349 353 358 4 6 4 1 358
240 240 240 243 245 247 248 246 235 224 219 219 220 218 212 208 206 204 200 193 191 195 201 204 202 198 200 205 216 237 260 285 316 337 351 356 360 2 2 3 5 3
241 241 239 241 243 244 246 243 234 223 217 215 214 211 207 204 202 200 198 195 195 198 203 206 205 205 211 218 225 237 258 281 302 326 338 343 347 349 350 353 358 0
242 242 240 239 241 242 241 237 229 222 217 212 210 208 205 202 201 200 198 197 198 201 205 208 209 214 221 229 233 237 250 270 288 305 317 322 328 333 337 342 347 350
240 241 239 238 239 240 238 232 227 222 217 211 208 205 204 202 202 202 202 201 201 203 207 212 217 224 231 238 242 243 246 258 276 292 301 306 313 321 327 334 337 338
238 238 237 236 237 238 234 227 224 221 216 212 207 204 203 202 202 203 205 205 205 205 208 216 223 230 237 242 245 247 247 252 267 282 291 294 301 312 320 326 329 329
235 236 236 236 237 237 231 222 219 218 216 213 208 203 202 202 203 205 207 208 209 209 212 219 226 232 238 243 246 251 253 256 264 273 280 284 290 302 312 318 321 322
234 234 234 235 235 234 228 218 215 216 216 214 210 205 203 203 205 208 210 211 213 214 217 222 228 234 240 244 248 252 255 258 262 266 272 277 284 292 301 309 314 315
233 233 232 233 233 231 225 216 213 215 216 215 212 208 205 204 207 209 211 213 214 216 220 224 229 235 241 245 246 247 249 255 260 265 269 273 278 284 291 300 306 308
232 232 231 232 232 229 222 215 214 215 215 215 214 211 208 206 208 210 212 214 216 219 223 227 230 234 238 241 243 246 250 255 262 268 270 272 273 277 284 293 300 302
231 232 232 232 231 227 221 216 216 216 216 216 215 214 212 210 210 212 214 216 218 221 224 226 228 230 232 237 243 249 254 259 265 270 273 275 276 276 280 288 295 298
231 233 233 232 231 226 220 216 217 218 218 217 216 216 215 213 213 214 215 217 219 221 222 223 226 229 232 238 245 250 256 261 265 270 275 279 280 279 280 284 290 294
231 232 232 232 232 227 220 217 218 219 219 219 218 217 217 216 215 215 216 218 220 222 223 225 228 230 233 239 245 251 257 262 267 272 277 281 282 281 281 281 284 289
230 230 230 229 230 228 222 220 220 221 221 221 220 219 219 218 217 217 218 219 220 223 225 227 230 232 237 245 251 257 261 264 268 272 274 278 280 279 278 277 280 283
229 229 229 227 227 227 224 222 222 223 223 222 222 220 220 219 218 217 218 219 220 223 226 229 233 239 246 253 258 262 264 265 267 270 272 275 276 277 281 285 287 285
229 227 227 226 226 225 224 222 222 225 225 223 222 220 219 219 218 219 219 220 221 225 229 235 240 246 251 257 262 265 266 266 268 269 269 270 272 276 282 286 287 284
230 227 225 225 225 224 224 223 222 224 226 224 222 220 219 219 219 220 221 223 227 231 235 240 245 249 254 260 264 267 269 268 266 264 265 269 275 278 280 279 279 279
231 229 225 224 224 224 224 223 223 223 225 226 224 221 220 220 220 222 225 229 233 236 240 244 248 252 258 262 266 269 270 267 262 258 261 272 279 278 274 275 278 280
232 231 228 225 223 224 224 224 224 223 224 226 227 225 223 222 223 226 230 233 237 240 244 247 250 254 259 262 265 266 267 267 265 263 262 268 274 272 271 275 279 281
233 232 230 226 223 224 225 225 225 226 225 226 228 229 228 227 228 231 234 237 240 243 246 248 250 253 256 259 261 262 264 266 270 276 275 268 268 267 267 272 273 272
236 234 232 229 226 225 226 227 226 227 227 228 229 231 232 231 232 233 237 240 243 244 246 247 248 250 253 255 257 259 262 265 273 284 287 278 275 274 274 276 272 268
239 237 234 232 229 228 228 229 228 228 229 230 231 232 233 233 233 235 238 242 245 245 245 245 246 248 250 253 256 259 262 265 273 283 284 279 279 282 286 290 285 280
240 240 236 232 231 232 232 231 230 229 230 231 233 234 235 236 236 238 240 243 244 244 244 243 243 244 247 251 256 261 263 263 267 274 279 281 280 283 288 286 277 274
241 243 241 236 234 235 235 233 232 231 231 232 234 235 236 237 238 239 241 241 241 240 239 238 239 242 246 251 257 261 264 265 267 271 276 279 278 281 287 281 271 268
239 243 248 246 241 239 239 236 233 232 232 233 234 233 234 236 238 239 239 238 237 235 233 234 238 241 244 251 256 259 264 269 274 276 278 278 279 284 289 282 271 268
Height
3175 3177 3178 3179 3180 3182 3182 3183 3183 3185 3187 3189 3191 3193 3194 3195 3196 3197 3198 3199 3200 3201 3203 3204 3205 3205 3206 3206 3207 3207 3207 3207 3207 3207 3206 3206 3205 3204 3203 3203 3202 3202
3173 3175 3176 3177 3178 3180 3181 3182 3182 3183 3185 3187 3189 3191 3192 3193 3195 3196 3197 3198 3199 3200 3202 3203 3204 3205 3205 3205 3206 3206 3207 3206 3206 3206 3205 3205 3204 3203 3202 3202 3201 3201
3170 3172 3174 3175 3176 3178 3179 3180 3181 3181 3182 3184 3186 3189 3190 3192 3194 3195 3196 3197 3198 3199 3201 3202 3203 3204 3204 3204 3205 3206 3206 3205 3205 3205 3204 3204 3203 3203 3202 3201 3201 3200
3168 3170 3171 3173 3174 3176 3177 3178 3179 3180 3180 3182 3184 3186 3188 3190 3192 3194 3195 3196 3197 3198 3200 3201 3202 3202 3203 3203 3204 3204 3204 3204 3204 3203 3203 3202 3202 3202 3201 3201 3200 3199
3165 3167 3169 3170 3172 3173 3175 3176 3177 3178 3179 3180 3182 3184 3186 3189 3191 3193 3194 3195 3196 3198 3199 3199 3200 3201 3202 3202 3203 3203 3203 3203 3202 3202 3201 3201 3201 3201 3200 3200 3199 3198
3162 3164 3166 3168 3169 3170 3172 3174 3175 3177 3178 3179 3180 3182 3184 3187 3189 3191 3193 3194 3195 3196 3197 3198 3199 3199 3200 3200 3201 3201 3201 3201 3201 3200 3200 3199 3199 3199 3199 3198 3197 3197
3159 3161 3163 3165 3166 3168 3170 3172 3173 3175 3177 3177 3178 3180 3182 3185 3188 3190 3191 3192 3194 3195 3196 3196 3197 3198 3198 3198 3199 3199 3199 3199 3198 3198 3198 3197 3197 3197 3197 3196 3195 3195
3157 3159 3161 3162 3163 3165 3167 3170 3171 3173 3175 3176 3176 3178 3180 3183 3186 3188 3189 3190 3192 3193 3194 3195 3195 3196 3196 3196 3196 3197 3197 3197 3196 3196 3196 3195 3195 3195 3194 3194 3193 3193
3154 3156 3157 3159 3160 3162 3165 3167 3169 3171 3173 3174 3175 3177 3178 3181 3183 3185 3187 3188 3189 3190 3191 3192 3193 3193 3193 3194 3194 3194 3194 3194 3194 3194 3193 3193 3193 3192 3192 3192 3191 3191
3151 3153 3154 3156 3157 3160 3163 3165 3168 3169 3171 3172 3174 3175 3177 3179 3181 3183 3184 3185 3187 3188 3189 3190 3190 3191 3191 3191 3191 3192 3192 3192 3192 3191 3191 3191 3190 3190 3190 3190 3190 3190
3149 3150 3151 3153 3154 3157 3160 3163 3165 3167 3169 3171 3172 3173 3175 3177 3178 3180 3181 3183 3184 3185 3186 3187 3187 3188 3188 3188 3189 3189 3189 3190 3189 3189 3189 3189 3189 3189 3189 3188 3188 3188
3146 3148 3149 3150 3152 3155 3158 3161 3163 3165 3167 3169 3170 3172 3173 3174 3176 3177 3179 3180 3182 3183 3183 3184 3184 3185 3185 3185 3186 3186 3187 3187 3186 3187 3187 3187 3187 3187 3187 3186 3186 3186
3143 3145 3147 3149 3150 3152 3155 3158 3160 3162 3164 3167 3168 3170 3171 3172 3173 3175 3176 3178 3179 3180 3180 3181 3181 3182 3182 3182 3182 3183 3184 3184 3184 3184 3184 3184 3184 3185 3185 3184 3184 3184
3141 3143 3145 3147 3148 3150 3152 3155 3157 3160 3162 3164 3166 3167 3168 3169 3171 3172 3174 3175 3176 3176 3177 3177 3178 3178 3179 3179 3179 3180 3180 3180 3181 3182 3182 3182 3182 3182 3182 3181 3181 3181
3138 3140 3142 3144 3146 3148 3149 3152 3154 3157 3159 3161 3162 3164 3166 3167 3168 3170 3170 3171 3172 3173 3173 3173 3174 3175 3175 3176 3176 3177 3177 3177 3178 3179 3179 3179 3179 3179 3179 3178 3178 3177
3135 3137 3139 3141 3143 3145 3146 3149 3151 3153 3156 3158 3159 3161 3163 3164 3165 3166 3167 3168 3169 3169 3170 3170 3171 3172 3173 3173 3173 3173 3174 3174 3175 3176 3176 3176 3176 3176 3176 3175 3174 3173
3132 3134 3135 3138 3140 3142 3144 3145 3147 3150 3152 3154 3156 3158 3159 3161 3162 3162 3163 3165 3165 3166 3166 3167 3168 3169 3170 3170 3169 3169 3169 3170 3171 3173 3172 3172 3172 3172 3172 3172 3171 3170
3128 3130 3132 3134 3136 3139 3141 3142 3143 3146 3149 3151 3152 3154 3156 3157 3158 3159 3161 3162 3162 3162 3163 3164 3165 3166 3166 3166 3166 3165 3165 3165 3167 3168 3168 3168 3169 3168 3169 3169 3168 3167
3124 3126 3128 3130 3133 3135 3137 3138 3140 3142 3144 3147 3148 3150 3152 3154 3155 3156 3157 3158 3158 3159 3160 3161 3162 3162 3163 3162 3162 3161 3160 3159 3160 3163 3165 3166 3166 3165 3164 3165 3164 3162
3120 3122 3125 3127 3129 3131 3132 3134 3136 3138 3140 3142 3144 3146 3148 3150 3152 3153 3153 3154 3155 3156 3157 3157 3158 3159 3159 3159 3158 3157 3155 3151 3152 3159 3163 3163 3162 3161 3160 3160 3159 3158
3117 3119 3121 3123 3124 3126 3128 3130 3132 3134 3136 3138 3139 3141 3143 3146 3148 3148 3149 3150 3151 3152 3153 3153 3154 3155 3155 3155 3154 3153 3150 3146 3147 3154 3159 3158 3156 3156 3156 3156 3155 3153
3114 3115 3117 3118 3120 3122 3124 3126 3128 3130 3132 3133 3134 3136 3138 3141 3143 3143 3144 3146 3147 3148 3149 3149 3150 3151 3151 3151 3150 3148 3145 3144 3145 3150 3153 3151 3150 3150 3150 3150 3149 3149
3111 3112 3113 3114 3115 3117 3119 3121 3123 3125 3127 3129 3130 3131 3133 3136 3138 3139 3140 3141 3143 3144 3145 3145 3147 3147 3147 3147 3146 3142 3140 3140 3144 3147 3148 3146 3146 3146 3145 3144 3144 3144
3107 3108 3109 3110 3111 3113 3115 3117 3119 3121 3123 3124 3125 3127 3129 3132 3133 3135 3136 3137 3139 3140 3140 3141 3142 3142 3142 3142 3141 3137 3134 3136 3141 3144 3143 3142 3142 3142 3141 3140 3140 3140
3104 3105 3105 3106 3107 3109 3110 3112 3114 3116 3118 3120 3121 3123 3126 3127 3129 3130 3131 3133 3134 3135 3136 3137 3137 3137 3138 3138 3137 3134 3130 3131 3136 3139 3138 3138 3138 3137 3137 3136 3136 3136
3101 3102 3102 3103 3104 3105 3107 3108 3110 3111 3113 3115 3117 3119 3121 3123 3124 3125 3127 3128 3130 3131 3132 3132 3132 3133 3134 3134 3134 3132 3129 3128 3130 3131 3132 3133 3133 3133 3132 3132 3132 3132